Regional Weather Roundup
Issued by NWS New Orleans/Baton Rouge, LA

Home | Current Version | Previous Version | Text Only | Print | Product List | Glossary Off
Versions: 1 2 3 4 5 6 7 8 9 10 11 12 13 14 15 16 17 18 19 20 21 22 23 24 25 26 27 28 29 30 31 32 33 34 35 36 37 38 39 40 41 42 43 44 45 46 47 48 49 50

953
ASUS44 KLIX 010905
RWRLIX
NEW ORLEANS REGIONAL WEATHER ROUNDUP
NATIONAL WEATHER SERVICE NEW ORLEANS LA
300 AM CST SUN FEB 01 2015

NOTE: "FAIR" INDICATES FEW OR NO CLOUDS BELOW 12,000 FEET WITH NO
      SIGNIFICANT WEATHER AND/OR OBSTRUCTIONS TO VISIBILITY.
      SKY/WX - SKY CONDITION AND SIGNIFICANT WEATHER.
      TMP - AIR TEMPERATURE.     DP    - DEWPOINT TEMPERATURE.
      RH  - RELATIVE HUMIDITY.   PRES  - PRESSURE.
      HI  - HEAT INDEX.          WCI   - WIND CHILL INDEX.

*  THESE STATIONS ARE NOT NWS OR FAA STATIONS AND ARE NOT UNDER
   NWS QUALITY CONTROL.

LAZ038-040-048-061>063-065>067-069-011000-
SOUTHEAST LOUISIANA

CITY           SKY/WX    TMP DP  RH WIND       PRES   REMARKS
N.O. AUDUBON     N/A     60  55  82 MISG        N/A
N.O. INTL ARPT CLOUDY    61  53  75 SE12      30.04F
N.O. LAKEFRONT CLOUDY    60  53  77 SE10      30.06F
N.O. DOWNTOWN* NOT AVBL
SLIDELL        CLOUDY    55  51  86 E3        30.05F
BATON ROUGE    CLOUDY    56  51  84 E10       30.03F
BOOTHVILLE     CLOUDY    60  55  83 SE6       30.07S
BELLE CHASSE   CLOUDY    61  53  75 E9        30.04F
BOGALUSA*        N/A     55  49  80 CALM      30.08F
GALLIANO*      CLOUDY    63  59  87 MISG      30.04F
NEW ROADS*     LGT RAIN  55  52  90 E3        30.03F
GONZALES*      CLOUDY    59  55  84 SE7       30.03F
HAMMOND*       CLOUDY    57  50  77 SE6       30.06F
HOUMA*         LGT RAIN  59  57  93 E5        30.03F
PORT FOURCHON* CLOUDY    66  61  82 SE15      30.06F

$$

MSZ070-080>082-011000-
SOUTHERN MISSISSIPPI

CITY           SKY/WX    TMP DP  RH WIND       PRES   REMARKS
MCCOMB         CLOUDY    51  48  89 SE7       30.04F
GULFPORT       CLOUDY    58  53  84 E13       30.07F
BILOXI         MOCLDY    53  52  95 E8        30.07F
PASCAGOULA     PTCLDY    48  46  93 E7        30.10F

$$

COASTAL OBSERVATIONS
LAKE AND NEARSHORE STATIONS

STATION/POSITION TIME  TEMP    WIND        PRES    WAVE
                       AIR SEA DIR/SP/G            HT/PER
                 (UTC) (F)     (DEG/KT/KT) (MB)    (FT/S)
PASCAGOULA       0900   53      70/  7/ 10 1018.7
WAVELAND YACHT   0900   57     120/  9/ 11 1017.3
GRAND ISLE       0900   65 62  130/ 10/ 14 1017.6
SOUTHWEST PASS   0900   63 49  140/ 14/ 16 1018.1
NEW CANAL        0900   58 55  140/  2/  5 1017.9
SHELL BEACH      0900   59 56  120/  9/ 10 1017.9

OFFSHORE STATIONS

STATION/POSITION TIME  TEMP    WIND        PRES    WAVE
                       AIR SEA DIR/SP/G            HT/PER
                 (UTC) (F)     (DEG/KT/KT) (MB)    (FT/S)
64 S DAUPHIN ISL 0830   67 69  150/ 19/ 23 1019.1    5/ 6

$$




USA.gov is the U.S. government's official web portal to all federal, state and local government web resources and services.